Wind_Speed
33 36 34 31 32 25 27 23 25 23 19 23 19 17 17 15 13 14 15 18 18 18 16 15 18 19 19 19 17 18 21 23 23 24 24 23 25 28 33 37 41 44 47
42 38 38 35 34 31 34 25 29 26 25 21 19 19 21 19 16 17 17 22 21 19 16 19 22 21 21 19 21 22 22 25 24 24 24 26 27 29 31 38 42 45 48
30 35 45 41 39 39 40 39 38 32 29 26 24 24 23 24 20 19 21 24 22 20 19 20 22 23 19 16 21 19 25 26 24 25 28 28 25 27 31 37 41 48 49
45 37 48 47 44 35 40 37 37 33 29 26 27 26 25 25 27 24 26 26 24 19 19 22 23 23 17 17 19 24 31 24 23 25 28 28 25 28 32 37 43 48 49
56 42 44 43 47 41 44 43 38 32 28 32 32 33 30 30 31 26 28 29 24 23 23 25 25 27 24 19 24 28 32 21 23 26 29 28 28 31 35 40 44 47 48
56 43 39 51 51 45 49 44 38 37 32 36 35 34 31 29 28 27 30 27 23 22 25 28 30 29 29 25 25 31 31 23 25 29 30 30 30 33 36 40 44 47 49
42 54 42 43 52 48 43 49 44 40 40 36 30 30 29 26 26 29 32 31 30 30 32 32 32 32 31 30 26 31 30 27 28 30 32 32 34 34 36 41 44 48 52
54 57 57 49 51 47 40 41 43 49 49 44 36 30 31 27 27 33 31 30 32 29 31 32 33 32 34 32 29 33 34 32 32 32 32 31 34 36 39 44 49 47 53
64 56 58 58 59 54 52 40 42 45 44 44 42 38 37 31 28 29 31 34 35 35 34 35 34 34 37 37 35 36 36 36 35 34 35 37 36 38 42 47 49 50 55
64 61 66 54 53 57 50 54 53 48 49 47 45 39 38 34 34 33 33 35 37 35 37 38 34 34 40 40 39 38 37 38 38 39 40 40 41 42 43 48 47 51 54
76 62 60 63 55 53 56 48 47 47 49 43 40 40 41 40 38 38 41 41 37 38 42 35 32 37 43 41 40 41 40 40 40 41 42 42 45 47 47 48 47 50 50
78 70 65 65 62 57 65 59 51 51 49 44 39 40 41 44 45 39 37 39 43 44 37 33 32 39 44 45 43 43 43 44 44 43 43 45 48 47 49 51 49 48 51
83 76 74 70 68 58 57 69 66 60 57 47 48 44 44 44 39 43 44 46 47 42 39 36 36 41 47 49 47 48 47 45 46 45 44 45 47 50 51 53 51 49 53
86 85 82 72 70 65 62 59 68 69 59 57 53 49 46 47 48 46 48 48 47 42 40 38 41 45 50 50 51 52 53 51 49 48 46 48 50 55 57 56 54 54 54
89 90 86 78 71 68 64 64 63 65 67 61 61 61 61 62 55 48 48 43 40 41 37 43 46 46 48 48 52 56 58 56 53 52 53 57 59 61 60 59 57 56 54
91 91 89 83 83 70 69 67 66 66 66 64 60 59 61 59 53 50 52 44 47 51 46 45 48 52 53 52 52 54 55 56 57 60 59 58 57 59 60 58 55 52 60
93 93 90 90 86 83 68 71 66 64 60 56 59 62 60 63 57 58 58 46 59 55 51 48 50 52 55 58 57 58 57 55 53 57 59 59 61 64 61 57 54 55 62
92 94 93 96 93 92 85 70 71 70 65 62 63 60 59 54 64 62 55 54 56 55 57 55 54 56 58 60 60 60 56 53 50 53 56 60 62 61 61 55 54 61 65
82 94 98 92 99 96 95 80 73 75 71 65 63 62 64 63 67 64 64 58 57 60 60 58 59 59 61 60 58 56 54 56 56 55 58 60 61 62 59 59 63 64 71
86 80 94 102 97 95 96 93 83 79 69 70 71 67 68 62 64 67 70 63 65 67 67 67 65 66 63 63 61 61 61 62 62 62 61 62 65 59 59 60 63 68 72
89 86 85 97 94 85 91 91 88 92 82 77 73 68 69 63 70 71 68 71 72 74 74 72 72 70 66 68 70 73 73 68 66 65 62 60 57 63 64 67 72 72 72
99 93 87 89 100 91 69 96 87 88 95 85 85 81 73 77 80 79 78 81 80 70 76 78 79 78 76 77 73 74 75 71 65 64 63 64 66 69 70 71 72 75 73
107 101 97 92 97 100 85 73 83 81 86 94 89 86 88 82 78 77 78 80 77 82 85 85 85 80 80 77 72 74 76 75 74 77 74 70 70 70 72 74 75 78 76
107 109 104 104 102 100 89 93 84 72 92 85 86 90 89 87 86 87 86 87 87 91 92 89 84 79 79 83 80 79 78 79 77 77 74 72 70 74 77 77 80 80 76
113 113 111 105 108 103 98 94 94 74 72 94 92 86 85 86 87 90 90 87 88 88 90 88 87 88 87 82 81 80 79 80 80 82 82 80 80 82 83 85 84 79 75
118 114 112 113 108 102 95 95 93 83 67 70 86 88 89 86 87 88 90 93 91 90 92 94 91 83 82 84 83 82 81 83 79 80 84 86 85 84 82 77 73 80 80
Wind_Direction
205 216 204 229 234 222 245 241 234 245 253 261 255 239 238 237 250 260 256 245 248 256 274 301 312 309 301 301 306 306 306 299 301 313 322 319 320 325 327 329 336 339 342
198 210 213 213 227 234 234 223 243 238 244 250 252 255 250 248 251 254 244 241 248 260 292 299 304 305 303 304 308 307 306 301 295 309 321 321 315 316 321 325 333 336 339
195 214 216 212 208 218 216 229 239 237 244 247 248 256 257 256 262 259 242 234 246 265 281 293 302 305 299 305 301 310 316 305 293 301 317 320 316 315 319 320 329 332 336
213 221 220 213 217 230 229 236 233 245 238 247 252 254 253 256 263 264 247 236 249 266 281 293 307 307 296 308 296 314 316 301 294 306 317 316 315 319 323 317 322 326 331
202 204 215 225 220 216 220 226 234 241 249 259 254 255 255 263 263 255 241 237 254 271 282 288 300 307 298 300 308 310 320 301 298 307 315 314 312 318 318 321 322 326 330
209 216 221 227 217 216 220 227 231 238 243 252 253 252 250 262 260 237 238 235 262 274 277 287 295 298 310 295 307 310 311 306 302 308 312 313 316 321 321 324 328 328 330
199 208 201 214 220 219 223 232 240 238 243 244 244 249 253 257 260 235 236 247 262 270 277 284 293 297 302 302 305 306 309 307 306 308 310 311 315 317 320 326 328 329 331
207 216 222 218 219 212 223 238 242 246 246 246 247 247 246 248 254 246 243 252 259 271 280 286 293 295 300 303 294 297 303 303 305 310 313 312 314 310 314 321 327 330 333
206 206 213 224 222 219 218 233 233 237 238 244 250 254 245 254 249 244 247 253 262 269 283 291 284 291 303 303 300 300 299 303 305 308 311 312 311 309 311 321 326 331 333
208 209 214 212 217 223 217 232 236 242 246 251 254 248 245 247 256 252 255 260 264 273 280 287 281 293 302 300 299 299 297 302 305 306 309 312 312 308 313 320 325 331 336
204 217 215 213 223 222 220 227 226 242 241 241 245 247 246 250 255 250 261 264 269 275 278 277 282 290 299 300 298 299 300 300 305 307 307 309 310 310 309 318 323 329 334
209 214 222 223 216 223 223 224 218 226 232 243 239 240 252 254 260 254 260 265 272 278 275 274 281 284 298 298 299 300 302 303 304 303 306 307 308 308 310 317 320 325 333
212 212 214 217 219 221 230 225 229 235 233 241 251 245 249 253 251 251 257 263 273 274 270 280 282 283 294 296 300 301 302 303 305 306 306 304 308 307 311 315 317 320 328
215 214 213 218 219 223 225 227 229 236 233 233 236 242 248 250 249 255 255 259 269 269 274 281 286 288 292 292 299 302 303 304 304 305 301 303 307 306 309 312 311 316 326
216 217 216 216 217 226 230 236 238 235 234 239 242 248 251 255 253 255 252 263 277 280 285 285 285 289 290 292 296 296 299 299 300 301 300 299 302 305 307 311 310 313 325
217 217 217 217 214 219 229 228 233 236 239 240 245 247 247 247 250 249 252 260 274 269 282 282 285 290 292 292 297 297 297 299 300 299 299 302 305 305 308 307 307 314 322
220 217 216 218 216 217 223 229 234 236 235 240 244 246 244 250 248 252 253 265 264 267 273 280 286 290 292 294 293 297 299 299 300 302 298 301 300 300 305 303 306 309 320
223 220 217 220 219 221 224 228 231 236 237 238 241 241 243 252 244 250 252 256 260 263 272 275 280 285 290 292 294 295 296 298 299 299 296 298 302 302 301 300 305 312 318
225 222 219 217 225 222 224 224 228 232 233 236 239 241 247 253 241 249 250 254 258 263 271 274 278 283 287 294 293 292 296 298 296 295 296 299 301 303 297 300 304 312 320
215 221 222 220 221 225 227 226 226 230 231 242 245 249 251 252 255 250 251 254 264 267 272 272 277 280 284 287 287 289 293 297 299 298 297 300 300 298 296 302 305 314 319
212 216 221 222 222 222 227 230 233 226 229 228 238 242 245 246 249 248 249 257 262 266 269 266 274 277 280 282 285 289 292 296 298 296 297 301 301 302 298 301 305 312 317
212 212 217 220 220 223 231 236 230 234 231 234 233 234 239 244 246 249 251 255 260 261 260 263 271 276 279 282 285 288 289 294 296 293 297 300 300 301 299 301 304 310 313
218 217 214 216 218 220 221 229 233 234 237 240 241 239 238 240 244 246 250 251 255 259 262 265 270 276 279 282 283 283 287 289 289 292 296 299 297 296 297 299 304 307 311
219 219 219 216 217 222 228 228 232 245 244 240 243 245 244 245 247 249 251 252 253 257 262 267 271 274 277 280 281 284 285 286 289 292 291 296 295 294 298 303 304 306 310
220 222 222 221 218 220 223 226 221 231 248 243 243 243 245 247 250 252 257 260 259 257 262 268 270 273 276 279 280 280 283 283 284 288 290 292 292 295 296 298 303 304 307
219 223 224 225 226 222 224 226 222 222 230 244 249 251 252 254 256 258 258 258 259 261 262 265 269 274 275 275 276 278 279 282 285 286 287 288 290 294 298 300 300 305 306
Height
10801 10805 10809 10815 10819 10823 10825 10827 10829 10830 10834 10834 10835 10837 10839 10840 10841 10842 10844 10844 10845 10845 10846 10846 10845 10845 10844 10842 10841 10840 10839 10838 10837 10835 10833 10830 10827 10824 10819 10814 10809 10803 10797
10793 10798 10805 10810 10813 10818 10821 10822 10825 10826 10829 10830 10832 10834 10835 10836 10837 10838 10840 10841 10842 10842 10842 10842 10841 10841 10840 10839 10837 10836 10835 10834 10832 10831 10828 10826 10822 10819 10815 10810 10805 10799 10792
10791 10795 10798 10803 10807 10811 10816 10818 10821 10822 10825 10825 10827 10830 10831 10832 10833 10835 10835 10837 10838 10838 10838 10838 10837 10837 10836 10835 10833 10832 10831 10829 10828 10826 10824 10821 10818 10815 10811 10807 10802 10795 10789
10786 10788 10791 10796 10801 10806 10811 10813 10815 10818 10820 10821 10822 10825 10826 10827 10828 10830 10832 10833 10834 10834 10834 10833 10833 10833 10832 10831 10829 10827 10826 10824 10823 10822 10820 10817 10814 10811 10807 10803 10798 10791 10785
10772 10777 10783 10788 10794 10800 10805 10806 10807 10811 10814 10816 10818 10819 10821 10822 10823 10824 10827 10829 10830 10830 10829 10829 10829 10829 10828 10827 10825 10823 10822 10820 10819 10817 10816 10812 10810 10807 10803 10799 10793 10787 10781
10766 10774 10779 10781 10785 10790 10793 10798 10801 10805 10809 10812 10812 10814 10816 10817 10817 10819 10822 10825 10826 10826 10825 10825 10825 10824 10823 10823 10821 10819 10817 10816 10815 10813 10811 10809 10806 10803 10798 10794 10788 10783 10777
10761 10761 10765 10770 10776 10782 10787 10792 10795 10799 10803 10805 10806 10808 10810 10811 10813 10814 10817 10819 10821 10822 10821 10820 10819 10819 10818 10817 10816 10815 10813 10811 10810 10808 10806 10804 10801 10798 10793 10789 10783 10779 10773
10744 10751 10756 10761 10767 10773 10781 10785 10788 10792 10794 10799 10800 10802 10804 10806 10808 10810 10812 10814 10816 10817 10816 10816 10814 10814 10813 10812 10811 10809 10808 10807 10805 10804 10802 10799 10796 10792 10788 10783 10779 10773 10767
10734 10737 10744 10750 10757 10764 10769 10777 10780 10782 10786 10791 10793 10796 10797 10800 10803 10805 10806 10809 10810 10811 10811 10810 10808 10808 10807 10806 10805 10804 10803 10801 10801 10799 10797 10794 10791 10787 10783 10778 10774 10768 10761
10725 10729 10736 10739 10745 10753 10759 10765 10769 10772 10778 10782 10786 10787 10790 10793 10795 10798 10799 10802 10803 10804 10805 10805 10803 10802 10800 10799 10799 10798 10797 10797 10796 10794 10791 10789 10785 10781 10778 10773 10769 10763 10756
10713 10719 10726 10730 10738 10743 10750 10756 10761 10763 10768 10772 10777 10779 10783 10785 10787 10789 10792 10794 10797 10797 10798 10798 10797 10795 10793 10793 10792 10792 10792 10791 10790 10788 10786 10783 10779 10775 10772 10768 10763 10757 10750
10699 10706 10714 10720 10728 10734 10739 10746 10749 10754 10758 10763 10768 10771 10773 10775 10777 10781 10784 10786 10787 10789 10790 10791 10790 10789 10787 10786 10785 10785 10785 10784 10783 10781 10779 10777 10773 10768 10764 10761 10756 10751 10744
10688 10692 10700 10709 10717 10724 10729 10733 10740 10745 10749 10754 10758 10761 10764 10766 10769 10772 10776 10779 10780 10780 10782 10783 10783 10782 10780 10778 10778 10778 10778 10777 10775 10773 10771 10769 10766 10761 10758 10754 10749 10743 10737
10671 10678 10688 10700 10706 10712 10717 10721 10729 10734 10739 10743 10749 10753 10756 10758 10762 10764 10767 10770 10772 10773 10774 10776 10776 10775 10774 10772 10771 10770 10769 10769 10768 10767 10764 10761 10760 10756 10750 10746 10742 10737 10730
10653 10664 10675 10684 10695 10701 10705 10711 10718 10724 10729 10733 10739 10743 10746 10749 10754 10755 10759 10761 10763 10764 10765 10766 10767 10767 10766 10765 10764 10762 10761 10760 10760 10758 10755 10751 10749 10746 10743 10738 10734 10729 10723
10635 10645 10661 10672 10679 10687 10694 10700 10707 10713 10717 10723 10727 10732 10736 10739 10742 10745 10749 10751 10753 10754 10755 10757 10758 10756 10754 10756 10755 10753 10751 10750 10750 10747 10743 10741 10739 10735 10733 10730 10726 10721 10715
10622 10632 10646 10657 10667 10675 10680 10688 10694 10700 10706 10711 10716 10720 10722 10727 10731 10735 10738 10740 10743 10743 10745 10747 10746 10745 10743 10742 10742 10740 10740 10739 10740 10737 10732 10731 10730 10726 10724 10722 10718 10712 10706
10601 10615 10629 10634 10648 10659 10668 10677 10683 10689 10693 10698 10703 10707 10709 10715 10719 10721 10725 10729 10730 10732 10734 10737 10737 10736 10733 10731 10730 10729 10730 10730 10730 10728 10724 10722 10720 10717 10714 10711 10707 10703 10696
10581 10595 10609 10626 10624 10640 10652 10660 10668 10674 10680 10685 10690 10696 10698 10704 10708 10711 10714 10718 10719 10722 10723 10725 10726 10725 10723 10722 10719 10718 10718 10718 10719 10716 10715 10715 10711 10707 10704 10700 10696 10693 10686
10559 10574 10589 10601 10616 10628 10637 10646 10654 10662 10669 10673 10678 10683 10689 10694 10696 10699 10703 10706 10708 10711 10713 10714 10714 10713 10712 10711 10709 10707 10708 10705 10705 10704 10703 10704 10700 10697 10694 10690 10686 10682 10675
10540 10553 10567 10585 10599 10610 10621 10630 10637 10647 10654 10661 10667 10671 10676 10680 10683 10687 10690 10692 10696 10697 10701 10703 10701 10701 10700 10695 10694 10695 10697 10695 10693 10689 10691 10690 10690 10688 10684 10679 10674 10670 10663
10521 10531 10548 10564 10579 10594 10619 10609 10617 10628 10639 10646 10653 10659 10663 10666 10670 10674 10675 10676 10680 10682 10685 10688 10689 10689 10684 10684 10683 10684 10681 10683 10680 10673 10678 10678 10678 10674 10671 10667 10663 10658 10652
10508 10516 10528 10541 10560 10573 10578 10591 10602 10613 10623 10631 10636 10642 10647 10652 10655 10658 10660 10662 10665 10666 10667 10669 10676 10674 10671 10667 10673 10670 10669 10669 10665 10662 10664 10664 10662 10660 10656 10654 10651 10647 10642
10490 10501 10512 10527 10542 10554 10564 10579 10593 10606 10604 10612 10618 10624 10631 10636 10639 10641 10642 10647 10653 10651 10650 10651 10656 10654 10655 10652 10654 10656 10656 10655 10653 10651 10650 10651 10647 10645 10643 10641 10638 10634 10630
10471 10482 10500 10514 10519 10532 10545 10556 10575 10578 10583 10590 10598 10606 10613 10617 10620 10619 10623 10629 10632 10637 10632 10632 10635 10636 10637 10638 10637 10639 10641 10642 10640 10638 10636 10637 10634 10632 10629 10628 10624 10621 10616
10452 10462 10477 10497 10516 10522 10532 10539 10554 10561 10562 10574 10577 10584 10591 10594 10597 10597 10603 10608 10614 10615 10611 10614 10619 10621 10620 10619 10621 10622 10623 10626 10626 10625 10620 10619 10621 10618 10615 10612 10609 10606 10602